EDT,Max TemperatureF,Mean TemperatureF,Min TemperatureF,Max Dew PointF,MeanDew PointF,Min DewpointF,Max Humidity, Mean Humidity, Min Humidity, Max Sea Level PressureIn, Mean Sea Level PressureIn, Min Sea Level PressureIn, Max VisibilityMiles, Mean VisibilityMiles, Min VisibilityMiles, Max Wind SpeedMPH, Mean Wind SpeedMPH, Max Gust SpeedMPH,PrecipitationIn, CloudCover, Events, WindDirDegrees
2010-9-1,87,71,55,61,57,52,100,66,32,30.24,30.13,30.05,10,10,2,9,2,13,0.00,0,,315
2010-9-2,87,73,58,62,58,51,100,65,30,30.09,30.02,29.96,10,10,9,8,2,13,0.00,0,,16
2010-9-3,88,73,57,66,60,56,100,68,36,29.97,29.91,29.83,10,10,8,18,5,25,T,1,,320
2010-9-4,75,66,57,59,47,42,75,54,33,30.00,29.94,29.89,10,10,10,21,9,32,0.00,0,,350
2010-9-5,77,63,49,55,49,46,89,63,36,30.09,30.04,29.99,10,10,10,12,3,15,0.00,0,,345
2010-9-6,81,65,49,57,52,48,100,68,35,30.23,30.17,30.10,10,10,2,13,3,17,0.00,0,,174
2010-9-7,86,69,52,65,59,51,100,67,34,30.27,30.21,30.15,10,10,9,15,3,17,0.00,0,,183
2010-9-8,75,69,62,67,64,60,100,87,73,30.14,30.08,30.01,10,8,4,20,4,24,0.02,2,Rain,345
2010-9-9,83,72,61,65,57,49,97,64,31,30.03,29.98,29.91,10,10,10,15,7,21,0.00,0,,343
2010-9-10,83,73,63,63,57,52,93,67,40,30.05,29.96,29.92,10,10,10,16,4,20,T,4,Rain,339
2010-9-11,71,68,64,68,64,60,100,91,81,30.08,30.01,29.91,10,5,1,13,3,16,0.95,7,Rain-Thunderstorm,185
2010-9-12,79,69,59,65,61,48,100,68,35,30.09,30.03,29.96,10,8,0,22,8,28,0.00,4,Fog,345
2010-9-13,80,67,54,55,51,45,86,58,30,30.17,30.11,30.06,10,10,10,13,4,16,0.00,0,,339
2010-9-14,84,67,50,58,52,48,96,64,31,30.17,30.12,30.06,10,10,10,15,5,18,0.00,0,,338
2010-9-15,84,69,54,60,55,53,97,67,37,30.20,30.14,30.09,10,10,10,12,1,15,0.00,0,,192
2010-9-16,82,71,59,60,57,52,93,66,39,30.12,30.06,29.99,10,10,10,18,6,26,0.00,2,,186
2010-9-17,83,73,63,66,61,56,93,68,43,30.09,30.03,29.98,10,9,6,16,6,21,0.02,2,Rain,347
2010-9-18,83,70,57,62,59,55,100,71,42,30.22,30.16,30.09,10,8,1,12,2,18,0.00,1,,297
2010-9-19,86,70,54,62,56,50,100,66,31,30.25,30.20,30.07,10,4,0,17,3,22,0.00,3,Fog,339
2010-9-20,86,72,57,61,58,52,100,66,32,30.15,30.08,30.01,10,7,0,15,4,20,0.00,0,Fog,339
2010-9-21,86,72,57,64,60,56,100,72,44,30.19,30.12,30.09,10,10,6,15,2,18,0.00,0,,166
2010-9-22,84,73,61,65,62,60,100,74,47,30.26,30.18,30.14,10,8,5,13,3,16,0.00,1,Thunderstorm,238
2010-9-23,87,73,58,64,60,55,100,68,35,30.31,30.25,30.16,10,4,0,12,2,16,0.00,2,Fog,200
2010-9-24,85,72,58,62,58,45,100,63,25,30.29,30.19,30.08,10,7,2,14,2,20,0.00,0,,202
2010-9-25,84,71,57,66,63,57,97,73,48,30.09,30.01,29.93,10,8,0,23,4,28,0.88,5,Fog-Rain-Thunderstorm,337
2010-9-26,66,63,59,64,61,57,100,92,84,29.99,29.93,29.84,10,6,1,8,2,12,1.11,8,Rain-Thunderstorm,66
2010-9-27,66,62,58,61,59,55,100,94,87,29.89,29.79,29.67,10,7,2,12,4,17,0.85,8,Rain-Thunderstorm,146
2010-9-28,71,62,53,57,53,49,100,76,51,29.83,29.76,29.69,10,10,10,14,7,18,0.00,3,,337
2010-9-29,65,60,54,58,55,52,100,86,72,29.91,29.82,29.73,10,8,1,10,4,13,0.26,7,Rain,2
2010-9-30,68,64,59,59,58,50,97,81,65,29.76,29.68,29.60,10,9,2,24,13,31,0.06,7,Rain,345